Tracking 19146 objects as of 25-Apr-2018
HD Live streaming from Space Station
objects crossing your sky now

ICECUBE

Track ICECUBE now!
10-day predictions
ICECUBE is classified as:


NORAD ID: 42705
Int'l Code: 1998-067LN
Perigee: 352.3 km
Apogee: 356.7 km
Inclination: 51.6 °
Period: 91.5 minutes
Semi major axis: 6725 km
RCS: Unknown
Launch date: November 20, 1998
Source: United States (US)
Launch site: TYURATAM MISSILE AND SPACE COMPLEX (TTMTR)
Uplink (MHz):
Downlink (MHz): 43*.xxx
Beacon (MHz):
Mode:
Call sign:
Status:

aabbcc
Your satellite tracking list
Your tracking list is empty




NASA's NSSDC Master Catalog

Two Line Element Set (TLE):
1 42705U 98067LN  18114.82896217  .00047293  00000-0  32680-3 0  9993
2 42705  51.6410 262.9858 0003228 337.8892  22.1968 15.74046361 53678
Source of the keplerian elements: AFSPC